Погода в Мозыре

Погода в Мозыре : погода сейчас, прогноз погоды и архив. Всё, что Вы хотите узнать о погоде в Мозыре!

Хотите узнать прогноз погоды в Мозыре? Тогда Вам сюда: Погода в Мозыре

Поиск расширенной информации на нашем сайте:

Другие новости

Новости СМИ2

Главная страница сайта

Новости сайта

03.07.2017

Напоминаем, что на нашем специализированном сайте Метеоцентр.Азия вы можете получить высокодетализированные автоматические прогнозы погоды по пунктам России, СНГ и мира в авиационном формате (включающие направление и скорость ветра, видимость, явления погоды, количество и форму облачности, нижнюю и верхнюю границу облачности).


Погода в Мозыре - сегодня

Время (UTC), дата Ветер
(°,м/с) 
Видим.   Явления Облачность Т
(°С)
Тd
(°С)
f(%) Тe
(°С)
Pmin
(гПа)
dP
(гПа)
Po
(мм)
O2
(г/м3)
Тmin Tmax R s Состояние
почвы
12 20.09.18 300 (СЗ) 20000 м    3/1 1000 м верхняя 
[Cu hum|Ci fib]
+27.1 +12.8 41 +32  1019.7  -0.7  749  272           
15 20.09.18 тихо ()   20000 м    3/0 верхняя 
[Ci fib]
+23.9 +12.7 49 +29  1019.4  -0.6  748  275           
18 20.09.18 тихо ()   10 км    ясно 
+17 +12.9 77 +22  1020.3  0.3  749  281    +27.6       
21 20.09.18 тихо ()   10 км    ясно 
+15.4 +12.1 81 +19  1020.5  749  283           
00 21.09.18 тихо ()   10 км    ясно 
+14.1 +11.8 86 +18  1020.7  0.1  749  285           
03 21.09.18 тихо ()   10 км    ясно 
+13.2 +11.2 88 +16  1021  0.2  749  286           
06 21.09.18 140 (ЮВ) 20000 м    ясно 
+18.9 +11.8 63 +24  1020.8  0.3  749  280  +12.7         
09 21.09.18 160 (Ю) 20000 м    ясно 
+25.3 +13.2 47 +31  1020  -0.2  749  274           
12 21.09.18 190 (Ю) 20000 м    4/4 1000 м 
[Cu med, cong]
+27 +10.9 37 +29  1018.8  -1  748  272           
15 21.09.18 140 (ЮВ) 20000 м    3/0 средняя, верхняя 
[Ac trans|Ci]
+24.7 +11.9 45 +29  1017.6  -1.4  747  274           
18 21.09.18 150 (ЮВ) 10 км    ясно 
+21.8 +10.9 50 +24  1017  -0.8  746  277    +27.4       
21 21.09.18 140 (ЮВ) 10 км    ясно 
+17 +11 68 +21  1016.5  -0.9  746  281           
00 22.09.18 170 (Ю) 10 км    ясно 
+16.2 +10.8 70 +20  1015.5  -1.1  745  281           
03 22.09.18 180 (Ю) 10 км    ясно 
+14.2 +10.2 77 +17  1014.2  -1.4  744  283           
06 22.09.18 180 (Ю) 20000 м    ясно 
+17.7 +10.3 62 +21  1012.6  -1.3  743  279  +13.3         
09 22.09.18 200 (Ю) 20000 м    3/0 верхняя 
[Ci fib]
+23.5 +11.1 46 +26  1011.9  -0.2  743  274           
12 22.09.18 300 (СЗ) 4{11}  20000 м    9/4 600 м средняя 
[Sc|Ac und]
+19.5 +12.4 64 +25  1013.7  1.4  744  277           
15 22.09.18 310 (СЗ) 3{12}  20000 м    10/0 средняя 
[Ac As]
+14.1 +8.2 68 +14  1015.5  1.3  745  284           
18 22.09.18 300 (СЗ) 1{11}  7000 м  слаб. ливневой дождь  10/6 300 м кучево-дожд., средняя 
[Cb cap|Ac As]
+9.3 +8.7 96 +10  1017.5  1.6  746  289    +25.4     
21 22.09.18 310 (СЗ) 3500 м  дымка{ливн. осадки}  10/3 600 м кучево-дожд., средняя 
[Cb cap|Ac As]
+8.7 +8.3 97 +10  1016.9  -0.7  745  290         
00 23.09.18 220 (ЮЗ) 3200 м  дымка{ливн. осадки}  10/8 600 м средняя 
[Sc|Ac As]
+7.7 +7.3 97 +9  1017  745  291      0.1     
03 23.09.18 270 (З) 5000 м  дымка  10/10 600 м 
[Sc]
+7.9 +7.4 97 +9  1016.3  -0.6  745  290         
06 23.09.18 320 (СЗ) 7000 м  дымка  10/10 600 м 
[Sc]
+8.7 +7.8 94 +10  1016.5  0.2  745  290  +7.5       
09 23.09.18 260 (З) 20000 м    8/8 600 м 
[Cu Sc]
+12.7 +8.8 77 +14  1016.2  0.1  745  285           
12 23.09.18 230 (ЮЗ) 20000 м    6/6 1000 м 
[Cu med, cong]
+14.6 +7 60 +16  1015.9  -0.1  745  284           
Время (UTC), дата Ветер
(°,м/с) 
Видим.   Явления Облачность Т
(°С)
Тd
(°С)
f(%) Тe
(°С)
Pmin
(гПа)
dP
(гПа)
Po
(мм)
O2
(г/м3)
Тmin Tmax R s Состояние
почвы

Для получения пояснительной информации подведите курсор к названию столбца.

ПОГОДА в Мозыре - архив

Всё, что Вы хотите узнать о погоде в Мозыре - удобно и подробно!

Выберите нужную дату (начиная с 1 января 2015* года) и нажмите кнопку "Найти".
Будут отображены архивные сводки погоды по пункту Мозырь, начиная с указанной даты.


Отображать данные в формате CSV (для использования в таблицах Excel)


Внимание! Наш архив погоды предназначен исключительно для личного некоммерческого использования в познавательных целях. Если Вам необходимы официальные справки о состоянии погоды (для производственных, юридических, коммерческих и т.п. целей), обращайтесь в органы Росгидромета.

*Примечание: данная дата относится к архиву по метеостанциям СССР (Россия, СНГ, Балтия).
Архив по метеостанциям Зарубежной Европы и Азии (кроме Китая) хранится 10 дней, по другим регионам земного шара (Китай, Африка, Америка, Австралия, Океания) - 1 день.

Мозырь - район местоположения метеостанции


Название, широта, долгота, высота метеостанции:
Мозырь 51.9°ш. 29.2°д. 170 м над ур. моря [Беларусь]

Дополнительная информация

В oтличие oт бoльшинства пoгoдных сайтoв мы публикуем пoдрoбную метеoинфoрмацию в детальнoм прoфессиoнальнoм фoрмате.

Характеристики температуры и влажнoсти вoздуха измеряются на высoте 2 м в тени вдали oт зданий и деревьев.
Скoрoсть ветра измеряется на высoте 10 м (на урoвне рoста челoвека скoрoсть ветра ниже в 1.5-2 раза). Если метеoстанция нахoдится в гoрoде или в лесу, тo скoрoсть ветра занижена на 2-4 м/с пo сравнению с oткрытым местoм. Скoрoсть ветра над акватoриями крупных рек и oзёр, а также на вершинах хoлмoв на 2-5 м/с выше, чем в oбычных услoвиях.
Атмoсфернoе давление в разных тoчках местнoсти мoжет значительнo oтличаться oт давления на метеoстанции, в зависимoсти oт услoвий рельефа (при пoдъёме на 10 м давление пoнижается примернo на 1 мм рт.ст.).